Location: Unspecified
(36.7100°N, 0.0000°E)
Time: 04:45:28
(UTC+00:00)

NOAA 16 DEB - Visible Passes

Search period start: 04 April 2026 00:00
Search period end: 14 April 2026 00:00
Orbit: 730 x 768 km, 98.6° (Epoch: 29 March)

Date Brightness Start Highest point End Pass type
(mag) Time Alt. Az. Time Alt. Az. Time Alt. Az.
4 Apr ? 22:29:36 10° N 22:29:36 10° N 22:29:39 10° N visible
6 Apr ? 22:45:06 11° N 22:45:06 11° N 22:45:15 10° N visible
7 Apr ? 22:02:54 11° NNE 22:02:54 11° NNE 22:03:07 10° N visible
8 Apr ? 23:00:31 11° NNW 23:00:31 11° NNW 23:00:39 10° NNW visible
9 Apr ? 22:18:16 13° N 22:18:16 13° N 22:18:47 10° N visible
10 Apr ? 23:15:51 10° NNW 23:15:51 10° NNW 23:15:52 10° NNW visible
11 Apr ? 22:33:34 14° N 22:33:34 14° N 22:34:15 10° N visible
12 Apr ? 21:51:16 12° NNE 21:51:16 12° NNE 21:51:47 10° NNE visible
13 Apr ? 22:48:46 15° NNW 22:48:46 15° NNW 22:49:32 10° NNW visible
